Weather History for KD55 - January, 2014

Change the Weather History Date:

Saturday, January 4, 2014

  Actual Average (KDVL) Record (KDVL)
Temperature  
Mean Temperature -4 °F -  
Max Temperature 8 °F 11 °F 42 °F (2007)
Min Temperature -16 °F -3 °F -35 °F (1968)
Degree Days  
Heating Degree Days 69    
Moisture  
Dew Point -14 °F    
Average Humidity 71    
Maximum Humidity 85    
Minimum Humidity 64    
Precipitation  
Precipitation 0.01 in - - ()
Sea Level Pressure  
Sea Level Pressure 29.98 in    
Wind  
Wind Speed 20 mph (NW)    
Max Wind Speed 26 mph    
Max Gust Speed 33 mph    
Visibility 6 miles    
Events Rain , Snow    
Averages and records for this station are not official NWS values.
T = Trace of Precipitation, MM = Missing Value Source: NWS Daily Summary

Daily Weather History Graph

Daily Weather History Graph

Search for Another Location

Airport or City:

Trip Planner

Search our weather history database for the weather conditions in past years. The results will help you decide how hot, cold, wet, or windy it might be!

Date:

Astronomy

Jan. 04, 2014 Rise Set
Actual Time 8:26 AM CST 4:51 PM CST
Civil Twilight 7:49 AM CST 5:27 PM CST
Nautical Twilight 7:09 AM CST 6:07 PM CST
Astronomical Twilight 6:31 AM CST 6:46 PM CST
Moon 10:11 AM CST (1/4) 9:36 PM CST (1/4)
Length of Visible Light 9h 38m
Length of Day
8h 25m
Waxing Crescent, 15% of the Moon is Illuminated
Jan 4
Waxing Crescent
Jan 7
First Quarter
Jan 15
Full
Jan 23
Last Quarter
Jan 30
New

Hourly Weather History & Observations

Time (CST) Temp. Windchill Dew Point Humidity Pressure Visibility Wind Dir Wind Speed Gust Speed Precip Events Conditions
12:15 AM 8.6 °F -12.3 °F 3.2 °F 79% 29.64 in 2.0 mi NNW 24.2 mph 33.4 mph N/A Snow Light Snow
12:35 AM 6.8 °F -12.9 °F 1.4 °F 79% 29.66 in 3.0 mi NNW 19.6 mph 31.1 mph 0.01 in Rain Light Freezing Rain
12:55 AM 6.8 °F -13.8 °F 1.4 °F 79% 29.67 in 4.0 mi North 21.9 mph 29.9 mph 0.01 in   Haze
1:15 AM 6.8 °F -12.9 °F -0.4 °F 72% 29.67 in 6.0 mi North 19.6 mph 26.5 mph N/A   Haze
1:35 AM 6.8 °F -12.4 °F -0.4 °F 72% 29.68 in 7.0 mi North 18.4 mph 24.2 mph N/A   Overcast
1:55 AM 5.0 °F -13.0 °F -0.4 °F 78% 29.69 in 9.0 mi NNW 15.0 mph - N/A   Overcast
2:15 AM 5.0 °F -14.7 °F -0.4 °F 78% 29.70 in 7.0 mi NNW 18.4 mph 21.9 mph N/A Snow Light Snow
2:35 AM 5.0 °F -15.2 °F -0.4 °F 78% 29.72 in 7.0 mi North 19.6 mph - N/A Snow Light Snow
2:55 AM 3.2 °F -18.6 °F -0.4 °F 85% 29.74 in 3.0 mi North 21.9 mph - N/A   Overcast
3:15 AM 1.4 °F -21.9 °F -2.2 °F 85% 29.75 in 3.0 mi North 24.2 mph 29.9 mph N/A   Overcast
3:35 AM 1.4 °F -21.4 °F -4.0 °F 78% 29.77 in 2.0 mi North 23.0 mph 32.2 mph N/A   Haze
3:55 AM 1.4 °F -21.0 °F -4.0 °F 78% 29.80 in 5.0 mi North 21.9 mph 29.9 mph N/A   Haze
4:15 AM 1.4 °F -21.0 °F -4.0 °F 78% 29.81 in 5.0 mi North 21.9 mph 27.6 mph N/A   Haze
4:35 AM 1.4 °F -17.6 °F -4.0 °F 78% 29.82 in 10.0 mi North 15.0 mph - N/A   Overcast
4:55 AM -0.4 °F -19.2 °F -5.8 °F 78% 29.84 in 10.0 mi North 13.8 mph - N/A   Scattered Clouds
5:15 AM -0.4 °F -18.4 °F -7.6 °F 72% 29.85 in 10.0 mi North 12.7 mph - N/A   Clear
5:35 AM -2.2 °F -18.9 °F -9.4 °F 71% 29.87 in 10.0 mi NW 10.4 mph - N/A   Partly Cloudy
5:55 AM -2.2 °F -16.8 °F -7.6 °F 78% 29.88 in 10.0 mi NW 8.1 mph - N/A   Mostly Cloudy
6:15 AM -0.4 °F -21.2 °F -5.8 °F 78% 29.89 in 3.0 mi NW 17.3 mph 21.9 mph N/A   Haze
6:35 AM -2.2 °F -24.1 °F -7.6 °F 78% 29.90 in 3.0 mi NW 18.4 mph 23.0 mph N/A   Haze
6:55 AM -4.0 °F -26.4 °F -9.4 °F 78% 29.91 in 5.0 mi NW 18.4 mph 25.3 mph N/A   Haze
7:15 AM -4.0 °F -26.4 °F -9.4 °F 78% 29.92 in 3.0 mi WNW 18.4 mph 26.5 mph N/A   Haze
7:35 AM -5.8 °F -32.4 °F -11.2 °F 77% 29.92 in 4.0 mi WNW 26.5 mph 31.1 mph N/A   Haze
7:55 AM -7.6 °F -31.7 °F -13.0 °F 77% 29.93 in 5.0 mi NW 19.6 mph 32.2 mph N/A   Haze
8:15 AM -9.4 °F -34.7 °F -14.8 °F 77% 29.94 in 6.0 mi WNW 20.7 mph 25.3 mph N/A   Haze
8:35 AM -9.4 °F -34.7 °F -16.6 °F 71% 29.95 in 5.0 mi NW 20.7 mph - N/A   Haze
8:55 AM -9.4 °F -32.1 °F -16.6 °F 71% 29.97 in 5.0 mi NW 16.1 mph - N/A   Haze
9:15 AM -9.4 °F -32.8 °F -16.6 °F 71% 29.96 in 9.0 mi NW 17.3 mph 21.9 mph N/A   Partly Cloudy
9:35 AM -9.4 °F -34.1 °F -16.6 °F 71% 29.98 in 7.0 mi NW 19.6 mph 25.3 mph N/A   Clear
9:55 AM -9.4 °F -32.8 °F -16.6 °F 71% 30.00 in 10.0 mi NW 17.3 mph - N/A   Clear
10:15 AM -9.4 °F -32.8 °F -16.6 °F 71% 30.00 in 9.0 mi NW 17.3 mph - N/A   Clear
10:35 AM -9.4 °F -33.5 °F -16.6 °F 71% 30.01 in 10.0 mi NW 18.4 mph 21.9 mph N/A   Clear
10:55 AM -9.4 °F -36.3 °F -16.6 °F 71% 30.00 in 3.0 mi NW 24.2 mph 29.9 mph N/A   Haze
11:15 AM -9.4 °F -34.1 °F -16.6 °F 71% 30.02 in 3.0 mi NW 19.6 mph - N/A   Haze
11:35 AM -9.4 °F -34.7 °F -16.6 °F 71% 30.01 in 3.0 mi WNW 20.7 mph - N/A   Haze
11:55 AM -9.4 °F -33.5 °F -16.6 °F 71% 30.01 in 5.0 mi NW 18.4 mph - N/A   Haze
12:15 PM -7.6 °F -29.8 °F -16.6 °F 65% 30.02 in 5.0 mi NW 16.1 mph - N/A   Haze
12:35 PM -7.6 °F -31.1 °F -16.6 °F 65% 30.03 in 3.0 mi WNW 18.4 mph 25.3 mph N/A   Haze
12:55 PM -7.6 °F -31.1 °F -16.6 °F 65% 30.03 in 3.0 mi NW 18.4 mph 26.5 mph N/A   Haze
1:15 PM -7.6 °F -34.4 °F -16.6 °F 65% 30.02 in 1.5 mi NW 25.3 mph 28.8 mph N/A   Haze
1:35 PM -7.6 °F -34.8 °F -16.6 °F 65% 30.03 in 1.2 mi NW 26.5 mph 31.1 mph N/A   Haze
1:55 PM -7.6 °F -34.8 °F -16.6 °F 65% 30.02 in 1.5 mi NW 26.5 mph 31.1 mph N/A   Haze
2:15 PM -7.6 °F -31.7 °F -16.6 °F 65% 30.03 in 2.0 mi NW 19.6 mph 29.9 mph N/A   Haze
2:35 PM -7.6 °F -33.9 °F -16.6 °F 65% 30.03 in 2.5 mi NW 24.2 mph 29.9 mph N/A   Haze
2:55 PM -7.6 °F -33.9 °F -16.6 °F 65% 30.06 in 2.0 mi NW 24.2 mph - N/A   Haze
3:15 PM -7.6 °F -31.1 °F -16.6 °F 65% 30.07 in 3.0 mi WNW 18.4 mph 31.1 mph N/A   Haze
3:35 PM -7.6 °F -33.9 °F -16.6 °F 65% 30.08 in 6.0 mi WNW 24.2 mph 29.9 mph N/A   Haze
3:55 PM -9.4 °F -34.1 °F -16.6 °F 71% 30.09 in 4.0 mi WNW 19.6 mph 31.1 mph N/A   Haze
4:15 PM -9.4 °F -36.3 °F -16.6 °F 71% 30.08 in 5.0 mi NW 24.2 mph - N/A   Haze
4:35 PM -9.4 °F -34.7 °F -18.4 °F 65% 30.10 in 3.0 mi WNW 20.7 mph 29.9 mph N/A   Haze
4:55 PM -11.2 °F -35.8 °F -18.4 °F 70% 30.10 in 9.0 mi WNW 18.4 mph - N/A   Clear
5:15 PM -11.2 °F -35.2 °F -18.4 °F 70% 30.10 in 10.0 mi WNW 17.3 mph 23.0 mph N/A   Clear
5:35 PM -11.2 °F -37.0 °F -18.4 °F 70% 30.10 in 7.0 mi WNW 20.7 mph 27.6 mph N/A   Clear
5:55 PM -11.2 °F -38.2 °F -18.4 °F 70% 30.10 in 4.0 mi WNW 23.0 mph 31.1 mph N/A   Haze
6:15 PM -11.2 °F -37.0 °F -20.2 °F 64% 30.11 in 10.0 mi WNW 20.7 mph - N/A   Clear
6:35 PM -11.2 °F -38.2 °F -20.2 °F 64% 30.10 in 5.0 mi WNW 23.0 mph 28.8 mph N/A   Haze
6:55 PM -11.2 °F -37.0 °F -20.2 °F 64% 30.12 in 8.0 mi WNW 20.7 mph 26.5 mph N/A   Clear
7:15 PM -11.2 °F -36.4 °F -20.2 °F 64% 30.13 in 10.0 mi WNW 19.6 mph - N/A   Clear
7:35 PM -13.0 °F -38.2 °F -20.2 °F 70% 30.13 in 10.0 mi WNW 18.4 mph 23.0 mph N/A   Clear
7:55 PM -11.2 °F -38.2 °F -20.2 °F 64% 30.12 in 10.0 mi WNW 23.0 mph - N/A   Clear
8:15 PM -11.2 °F -35.8 °F -20.2 °F 64% 30.12 in 10.0 mi WNW 18.4 mph - N/A   Clear
8:35 PM -13.0 °F -39.4 °F -20.2 °F 70% 30.13 in 10.0 mi WNW 20.7 mph - N/A   Clear
8:55 PM -13.0 °F -40.0 °F -20.2 °F 70% 30.13 in 10.0 mi WNW 21.9 mph 28.8 mph N/A   Clear
9:15 PM -13.0 °F -39.4 °F -20.2 °F 70% 30.13 in 9.0 mi WNW 20.7 mph 26.5 mph N/A   Clear
9:35 PM -13.0 °F -37.5 °F -22.0 °F 64% 30.14 in 10.0 mi WNW 17.3 mph 21.9 mph N/A   Clear
9:55 PM -13.0 °F -36.8 °F -22.0 °F 64% 30.15 in 10.0 mi WNW 16.1 mph - N/A   Clear
10:15 PM -13.0 °F -36.8 °F -22.0 °F 64% 30.16 in 10.0 mi WNW 16.1 mph - N/A   Clear
10:35 PM -14.8 °F -39.1 °F -22.0 °F 70% 30.16 in 10.0 mi WNW 16.1 mph - N/A   Clear
10:55 PM -14.8 °F -38.3 °F -22.0 °F 70% 30.16 in 10.0 mi NW 15.0 mph - N/A   Clear
11:15 PM -16.6 °F -42.1 °F -22.0 °F 76% 30.16 in 10.0 mi NW 17.3 mph - N/A   Clear
11:35 PM -16.6 °F -42.9 °F -22.0 °F 76% 30.17 in 10.0 mi WNW 18.4 mph - N/A   Clear
11:55 PM -16.6 °F -37.9 °F -23.8 °F 70% 30.17 in 10.0 mi NW 11.5 mph - N/A   Clear